Dades meteomassalio
Diari Summary for Gener 8, 2017 Units:  Metric    English   Both
« Previous Day
Next Day »
Diari Semanal Mensual Anual Personalitzat
  Maxima: Minima: Mijana:
Temperatura: -17.8 °C -19.9 °C -16.2 °C
Rosada: -17.8 °C -21.8 °C -19.9 °C
Humitat: Humidity % 28 % 65 %
Velocitat del vent: 0 km/h 0 km/h 0 km/h
Racha vent: 0 km/h - -
Vent:- - North
Pressio: 0 hPa 34797.9 hPa -
Pluja: 0 mm    
Historical Graphs
 
 
Tabular Data for Gener 8, 2017
Time Temperature Dew Point Pressure Wind Wind Speed Wind Gust Humidity Rainfall Rate (Hourly) solar Conditions
-17.8 °C -17.8 °C 0 hPa Calm     Humidity % 0 mm SolarRadiationWatts/m^2 W/m2 Conditions
00:04 -18.9 °C -20.4 °C 35014.6 hPa Calm     82 % 0 mm 0.0 W/m2 CLR
00:09 -19 °C -20.5 °C 35014.6 hPa Calm     82 % 0 mm 0.0 W/m2 CLR
00:14 -19.1 °C -20.6 °C 35014.6 hPa Calm     82 % 0 mm 0.0 W/m2 CLR
00:19 -19.1 °C -20.5 °C 35001.1 hPa Calm     83 % 0 mm 0.0 W/m2 CLR
00:24 -19.1 °C -20.5 °C 35001.1 hPa Calm     83 % 0 mm 0.0 W/m2 CLR
00:29 -19.1 °C -20.5 °C 35014.6 hPa Calm     83 % 0 mm 0.0 W/m2 CLR
00:34 -19.2 °C -20.6 °C 35001.1 hPa Calm     83 % 0 mm 0.0 W/m2 CLR
00:39 -19.2 °C -20.4 °C 35001.1 hPa Calm     84 % 0 mm 0.0 W/m2 CLR
00:44 -19.1 °C -20.4 °C 35001.1 hPa Calm     83 % 0 mm 0.0 W/m2 CLR
00:49 -19 °C -20.5 °C 35001.1 hPa Calm     82 % 0 mm 0.0 W/m2 CLR
00:54 -19 °C -20.5 °C 35001.1 hPa Calm     82 % 0 mm 0.0 W/m2 CLR
00:59 -19.1 °C -20.5 °C 35001.1 hPa Calm     82 % 0 mm 0.0 W/m2 CLR
01:04 -19.1 °C -20.6 °C 35001.1 hPa Calm     82 % 0 mm 0.0 W/m2 CLR
01:09 -19.2 °C -20.7 °C 35001.1 hPa Calm     82 % 0 mm 0.0 W/m2 CLR
01:14 -19.2 °C -20.6 °C 35001.1 hPa Calm     83 % 0 mm 0.0 W/m2 CLR
01:19 -19.2 °C -20.7 °C 35001.1 hPa Calm     82 % 0 mm 0.0 W/m2 CLR
01:24 -19.2 °C -20.6 °C 34990.9 hPa Calm     83 % 0 mm 0.0 W/m2 CLR
01:29 -19.2 °C -20.7 °C 34990.9 hPa Calm     82 % 0 mm 0.0 W/m2 CLR
01:34 -19.2 °C -20.7 °C 34990.9 hPa Calm     82 % 0 mm 0.0 W/m2 CLR
01:39 -19.1 °C -20.6 °C 34990.9 hPa Calm     82 % 0 mm 0.0 W/m2 CLR
01:44 -19.1 °C -20.6 °C 34990.9 hPa Calm     82 % 0 mm 0.0 W/m2 CLR
01:49 -19.1 °C -20.7 °C 34990.9 hPa Calm     81 % 0 mm 0.0 W/m2 CLR
01:54 -19.1 °C -20.7 °C 34990.9 hPa Calm     81 % 0 mm 0.0 W/m2 CLR
01:59 -19.1 °C -20.7 °C 34990.9 hPa Calm     81 % 0 mm 0.0 W/m2 CLR
02:04 -19.1 °C -20.7 °C 34990.9 hPa Calm     80 % 0 mm 0.0 W/m2 CLR
02:09 -19.1 °C -20.7 °C 34990.9 hPa Calm     80 % 0 mm 0.0 W/m2 CLR
02:14 -19.1 °C -20.8 °C 34990.9 hPa Calm     80 % 0 mm 0.0 W/m2 CLR
02:19 -19.1 °C -20.7 °C 34990.9 hPa Calm     80 % 0 mm 0.0 W/m2 CLR
02:24 -19.1 °C -20.8 °C 34990.9 hPa Calm     80 % 0 mm 0.0 W/m2 CLR
02:29 -19.1 °C -20.8 °C 34990.9 hPa Calm     80 % 0 mm 0.0 W/m2 CLR
02:34 -19.1 °C -20.7 °C 34990.9 hPa Calm     81 % 0 mm 0.0 W/m2 CLR
02:39 -19.2 °C -20.7 °C 34990.9 hPa Calm     81 % 0 mm 0.0 W/m2 CLR
02:44 -19.1 °C -20.7 °C 34990.9 hPa Calm     81 % 0 mm 0.0 W/m2 CLR
02:49 -19.1 °C -20.7 °C 34990.9 hPa Calm     81 % 0 mm 0.0 W/m2 CLR
02:54 -19.2 °C -20.8 °C 34990.9 hPa Calm     81 % 0 mm 0.0 W/m2 CLR
02:59 -19.3 °C -20.8 °C 34990.9 hPa Calm     81 % 0 mm 0.0 W/m2 CLR
03:04 -19.2 °C -20.8 °C 34990.9 hPa Calm     81 % 0 mm 0.0 W/m2 CLR
03:09 -19.1 °C -20.8 °C 34990.9 hPa Calm     80 % 0 mm 0.0 W/m2 CLR
03:14 -19.1 °C -20.8 °C 34990.9 hPa Calm     80 % 0 mm 0.0 W/m2 CLR
03:24 -19.2 °C -20.8 °C 34990.9 hPa Calm     80 % 0 mm 0.0 W/m2 CLR
03:29 -19.2 °C -20.9 °C 34990.9 hPa Calm     80 % 0 mm 0.0 W/m2 CLR
03:34 -19.2 °C -20.9 °C 34990.9 hPa Calm     80 % 0 mm 0.0 W/m2 CLR
03:39 -19.3 °C -20.8 °C 34990.9 hPa Calm     81 % 0 mm 0.0 W/m2 CLR
03:44 -19.3 °C -20.9 °C 34990.9 hPa Calm     81 % 0 mm 0.0 W/m2 CLR
03:49 -19.3 °C -20.8 °C 34980.8 hPa Calm     81 % 0 mm 0.0 W/m2 CLR
03:54 -19.1 °C -20.8 °C 34980.8 hPa Calm     80 % 0 mm 0.0 W/m2 CLR
03:59 -19.1 °C -20.9 °C 34980.8 hPa Calm     79 % 0 mm 0.0 W/m2 CLR
04:04 -19.3 °C -20.9 °C 34980.8 hPa Calm     80 % 0 mm 0.0 W/m2 CLR
04:09 -19.4 °C -20.9 °C 34980.8 hPa Calm     81 % 0 mm 0.0 W/m2 CLR
04:14 -19.4 °C -20.9 °C 34980.8 hPa Calm     82 % 0 mm 0.0 W/m2 CLR
04:19 -19.6 °C -21 °C 34980.8 hPa Calm     82 % 0 mm 0.0 W/m2 CLR
04:25 -19.5 °C -20.9 °C 34980.8 hPa Calm     83 % 0 mm 0.0 W/m2 CLR
04:30 -19.5 °C -20.9 °C 34980.8 hPa Calm     82 % 0 mm 0.0 W/m2 CLR
04:35 -19.4 °C -20.9 °C 34980.8 hPa Calm     82 % 0 mm 0.0 W/m2 CLR
04:40 -19.3 °C -20.9 °C 34980.8 hPa Calm     81 % 0 mm 0.0 W/m2 CLR
04:45 -19.3 °C -20.9 °C 34980.8 hPa Calm     81 % 0 mm 0.0 W/m2 CLR
04:50 -19.3 °C -20.9 °C 34980.8 hPa Calm     81 % 0 mm 0.0 W/m2 CLR
04:55 -19.4 °C -20.9 °C 34980.8 hPa Calm     81 % 0 mm 0.0 W/m2 CLR
05:00 -19.4 °C -21 °C 34980.8 hPa Calm     81 % 0 mm 0.0 W/m2 CLR
05:05 -19.4 °C -21 °C 34980.8 hPa Calm     81 % 0 mm 0.0 W/m2 CLR
05:10 -19.4 °C -20.9 °C 34980.8 hPa Calm     81 % 0 mm 0.0 W/m2 CLR
05:15 -19.4 °C -20.9 °C 34980.8 hPa Calm     81 % 0 mm 0.0 W/m2 CLR
05:20 -19.5 °C -21.1 °C 34980.8 hPa Calm     81 % 0 mm 0.0 W/m2 CLR
05:25 -19.7 °C -21.1 °C 34980.8 hPa Calm     82 % 0 mm 0.0 W/m2 CLR
05:30 -19.8 °C -21.1 °C 34967.2 hPa Calm     83 % 0 mm 0.0 W/m2 CLR
05:35 -19.8 °C -21.1 °C 34967.2 hPa Calm     84 % 0 mm 0.0 W/m2 CLR
05:40 -19.8 °C -21.1 °C 34967.2 hPa Calm     84 % 0 mm 0.0 W/m2 CLR
05:45 -19.7 °C -20.9 °C 34967.2 hPa Calm     84 % 0 mm 0.0 W/m2 CLR
05:50 -19.6 °C -21 °C 34967.2 hPa Calm     83 % 0 mm 0.0 W/m2 CLR
05:55 -19.6 °C -20.9 °C 34967.2 hPa Calm     83 % 0 mm 0.0 W/m2 CLR
06:00 -19.6 °C -20.9 °C 34967.2 hPa Calm     83 % 0 mm 0.0 W/m2 CLR
06:05 -19.5 °C -20.9 °C 34967.2 hPa Calm     82 % 0 mm 0.0 W/m2 CLR
06:10 -19.6 °C -21 °C 34967.2 hPa Calm     82 % 0 mm 0.0 W/m2 CLR
06:15 -19.6 °C -21 °C 34967.2 hPa Calm     82 % 0 mm 0.0 W/m2 CLR
06:20 -19.6 °C -21.1 °C 34967.2 hPa Calm     82 % 0 mm 0.0 W/m2 CLR
06:25 -19.6 °C -21 °C 34967.2 hPa Calm     82 % 0 mm 0.0 W/m2 CLR
06:30 -19.6 °C -20.9 °C 34967.2 hPa Calm     83 % 0 mm 0.0 W/m2 CLR
06:35 -19.3 °C -20.9 °C 34967.2 hPa Calm     81 % 0 mm 0.0 W/m2 CLR
06:40 -19.3 °C -21 °C 34967.2 hPa Calm     80 % 0 mm 0.0 W/m2 CLR
06:45 -19.4 °C -21.1 °C 34967.2 hPa Calm     80 % 0 mm 0.0 W/m2 CLR
06:50 -19.4 °C -21.1 °C 34967.2 hPa Calm     80 % 0 mm 0.0 W/m2 CLR
06:55 -19.4 °C -21.1 °C 34967.2 hPa Calm     80 % 0 mm 0.0 W/m2 CLR
07:00 -19.4 °C -21.1 °C 34967.2 hPa Calm     80 % 0 mm 0.0 W/m2 CLR
07:05 -19.4 °C -21 °C 34967.2 hPa Calm     80 % 0 mm 0.0 W/m2 CLR
07:10 -19.4 °C -21 °C 34967.2 hPa Calm     80 % 0 mm 0.0 W/m2 CLR
07:15 -19.4 °C -21 °C 34967.2 hPa Calm     80 % 0 mm 0.0 W/m2 CLR
07:20 -19.4 °C -21 °C 34967.2 hPa Calm     80 % 0 mm 0.0 W/m2 CLR
07:25 -19.5 °C -21.1 °C 34967.2 hPa Calm     80 % 0 mm 0.0 W/m2 CLR
07:30 -19.6 °C -21.2 °C 34967.2 hPa Calm     81 % 0 mm 0.0 W/m2 CLR
07:35 -19.7 °C -21.2 °C 34967.2 hPa Calm     82 % 0 mm 0.0 W/m2 CLR
07:40 -19.8 °C -21.2 °C 34967.2 hPa Calm     82 % 0 mm 0.0 W/m2 CLR
07:45 -19.8 °C -21.1 °C 34967.2 hPa Calm     83 % 0 mm 0.0 W/m2 CLR
07:50 -19.7 °C -21.1 °C 34967.2 hPa Calm     82 % 0 mm 0.0 W/m2 CLR
07:55 -19.6 °C -21.1 °C 34967.2 hPa Calm     82 % 0 mm 0.0 W/m2 CLR
08:00 -19.7 °C -21.1 °C 34967.2 hPa Calm     82 % 0 mm 0.0 W/m2 CLR
08:05 -19.7 °C -21.2 °C 34967.2 hPa Calm     82 % 0 mm 0.0 W/m2 CLR
08:10 -19.8 °C -21.2 °C 34967.2 hPa Calm     83 % 0 mm 0.0 W/m2 CLR
08:15 -19.8 °C -21.2 °C 34967.2 hPa Calm     83 % 0 mm 0.0 W/m2 CLR
08:20 -19.9 °C -21.2 °C 34967.2 hPa Calm     83 % 0 mm 0.0 W/m2 CLR
08:25 -19.9 °C -21.2 °C 34967.2 hPa Calm     84 % 0 mm 5.0 W/m2 BKN
08:30 -19.9 °C -21.2 °C 34967.2 hPa Calm     84 % 0 mm 7.0 W/m2 BKN
08:35 -19.8 °C -21.2 °C 34967.2 hPa Calm     84 % 0 mm 11.0 W/m2 BKN
08:40 -19.8 °C -21.1 °C 34967.2 hPa Calm     84 % 0 mm 12.0 W/m2 BKN
08:45 -19.7 °C -21.1 °C 34967.2 hPa Calm     83 % 0 mm 16.0 W/m2 BKN
08:50 -19.6 °C -20.9 °C 34967.2 hPa Calm     83 % 0 mm 18.0 W/m2 BKN
08:55 -19.4 °C -20.9 °C 34980.8 hPa Calm     81 % 0 mm 21.0 W/m2 BKN
09:00 -19.3 °C -20.9 °C 34980.8 hPa Calm     81 % 0 mm 26.0 W/m2 BKN
09:05 -19.4 °C -20.9 °C 34980.8 hPa Calm     81 % 0 mm 33.0 W/m2 BKN
09:10 -19.3 °C -20.7 °C 34980.8 hPa Calm     82 % 0 mm 42.0 W/m2 BKN
09:15 -19.1 °C -20.7 °C 34980.8 hPa Calm     81 % 0 mm 53.0 W/m2 BKN
09:20 -19.1 °C -20.7 °C 34980.8 hPa Calm     80 % 0 mm 62.0 W/m2 BKN
09:25 -19 °C -20.7 °C 34980.8 hPa Calm     79 % 0 mm 67.0 W/m2 BKN
09:30 -18.8 °C -20.5 °C 34980.8 hPa Calm     80 % 0 mm 72.0 W/m2 BKN
09:35 -18.6 °C -20.3 °C 34980.8 hPa Calm     80 % 0 mm 77.0 W/m2 BKN
09:45 -18.3 °C -20.1 °C 34980.8 hPa Calm     78 % 0 mm 125.0 W/m2 BKN
09:50 -18.1 °C -20.1 °C 34980.8 hPa Calm     77 % 0 mm 123.0 W/m2 BKN
09:55 -17.9 °C -20.1 °C 34980.8 hPa Calm     75 % 0 mm 155.0 W/m2 BKN
10:00 -17.7 °C -20 °C 34980.8 hPa Calm     74 % 0 mm 169.0 W/m2 BKN
10:05 -17.5 °C -19.9 °C 34980.8 hPa Calm     72 % 0 mm 162.0 W/m2 SCT
10:10 -17.4 °C -19.9 °C 34980.8 hPa Calm     71 % 0 mm 197.0 W/m2 BKN
10:15 -17.2 °C -19.8 °C 34980.8 hPa Calm     71 % 0 mm 130.0 W/m2 BKN
10:20 -17 °C -19.6 °C 34980.8 hPa Calm     71 % 0 mm 221.0 W/m2 SCT
10:25 -16.7 °C -19.4 °C 34980.8 hPa Calm     70 % 0 mm 234.0 W/m2 SCT
10:30 -16.3 °C -19.2 °C 34967.2 hPa Calm     69 % 0 mm 250.0 W/m2 SCT
10:35 -16 °C -19.2 °C 34967.2 hPa Calm     66 % 0 mm 262.0 W/m2 SCT
10:40 -15.7 °C -19.3 °C 34967.2 hPa Calm     63 % 0 mm 272.0 W/m2 SCT
10:45 -15.4 °C -19.4 °C 34967.2 hPa Calm     60 % 0 mm 281.0 W/m2 SCT
10:50 -15.2 °C -19.4 °C 34967.2 hPa Calm     58 % 0 mm 290.0 W/m2 SCT
10:55 -14.9 °C -19.3 °C 34967.2 hPa Calm     57 % 0 mm 302.0 W/m2 SCT
11:01 -14.7 °C -19.3 °C 34967.2 hPa Calm     55 % 0 mm 311.0 W/m2 SCT
11:06 -14.6 °C -19.4 °C 34967.2 hPa Calm     54 % 0 mm 320.0 W/m2 FEW
11:11 -14.6 °C -19.3 °C 34967.2 hPa Calm     54 % 0 mm 325.0 W/m2 FEW
11:16 -14.3 °C -19.4 °C 34967.2 hPa Calm     52 % 0 mm 336.0 W/m2 FEW
11:21 -14.2 °C -19.4 °C 34967.2 hPa Calm     51 % 0 mm 346.0 W/m2 FEW
11:26 -14.1 °C -19.2 °C 34957.1 hPa Calm     52 % 0 mm 352.0 W/m2 FEW
11:31 -13.8 °C -19.1 °C 34957.1 hPa Calm     51 % 0 mm 359.0 W/m2 FEW
11:36 -13.7 °C -19.4 °C 34946.9 hPa Calm     48 % 0 mm 366.0 W/m2 FEW
11:41 -13.3 °C -19.1 °C 34946.9 hPa Calm     48 % 0 mm 374.0 W/m2 FEW
11:46 -12.9 °C -20.1 °C 34933.4 hPa Calm     40 % 0 mm 381.0 W/m2 FEW
11:51 -12.5 °C -21.1 °C 34933.4 hPa Calm     33 % 0 mm 387.0 W/m2 FEW
11:56 -12.3 °C -21.2 °C 34933.4 hPa Calm     32 % 0 mm 392.0 W/m2 FEW
12:01 -12.2 °C -20.9 °C 34933.4 hPa Calm     33 % 0 mm 399.0 W/m2 FEW
12:06 -12.3 °C -21.1 °C 34923.2 hPa Calm     32 % 0 mm 404.0 W/m2 FEW
12:11 -12.2 °C -21.5 °C 34923.2 hPa Calm     30 % 0 mm 410.0 W/m2 FEW
12:16 -12.1 °C -21.4 °C 34909.7 hPa Calm     30 % 0 mm 413.0 W/m2 CLR
12:21 -11.9 °C -21.6 °C 34909.7 hPa Calm     29 % 0 mm 417.0 W/m2 CLR
12:26 -12 °C -21.6 °C 34909.7 hPa Calm     29 % 0 mm 418.0 W/m2 CLR
12:31 -11.9 °C -21.8 °C 34899.5 hPa Calm     28 % 0 mm 422.0 W/m2 CLR
12:36 -11.8 °C -21.4 °C 34899.5 hPa Calm     29 % 0 mm 425.0 W/m2 CLR
12:41 -11.9 °C -21.5 °C 34899.5 hPa Calm     29 % 0 mm 427.0 W/m2 CLR
12:46 -11.9 °C -21.6 °C 34899.5 hPa Calm     29 % 0 mm 432.0 W/m2 CLR
12:51 -11.9 °C -21.8 °C 34889.3 hPa Calm     28 % 0 mm 436.0 W/m2 CLR
12:56 -11.9 °C -21.3 °C 34889.3 hPa Calm     30 % 0 mm 436.0 W/m2 CLR
13:01 -11.9 °C -21.6 °C 34889.3 hPa Calm     29 % 0 mm 434.0 W/m2 CLR
13:06 -11.9 °C -21.3 °C 34889.3 hPa Calm     30 % 0 mm 436.0 W/m2 CLR
13:11 -11.9 °C -21.1 °C 34875.8 hPa Calm     31 % 0 mm 439.0 W/m2 CLR
13:16 -11.8 °C -21.4 °C 34875.8 hPa Calm     29 % 0 mm 434.0 W/m2 CLR
13:21 -11.7 °C -21.2 °C 34875.8 hPa Calm     30 % 0 mm 438.0 W/m2 CLR
13:26 -11.7 °C -21.2 °C 34875.8 hPa Calm     30 % 0 mm 434.0 W/m2 CLR
13:31 -11.8 °C -21.4 °C 34865.6 hPa Calm     29 % 0 mm 432.0 W/m2 CLR
13:36 -11.8 °C -21.2 °C 34865.6 hPa Calm     30 % 0 mm 429.0 W/m2 CLR
13:41 -11.7 °C -21.1 °C 34865.6 hPa Calm     30 % 0 mm 427.0 W/m2 CLR
13:46 -11.6 °C -20.8 °C 34865.6 hPa Calm     31 % 0 mm 427.0 W/m2 CLR
13:51 -11.6 °C -21.3 °C 34852.1 hPa Calm     29 % 0 mm 422.0 W/m2 CLR
13:56 -11.6 °C -20.9 °C 34852.1 hPa Calm     30 % 0 mm 418.0 W/m2 CLR
14:01 -11.4 °C -21.2 °C 34852.1 hPa Calm     29 % 0 mm 415.0 W/m2 CLR
14:06 -11.5 °C -20.9 °C 34841.9 hPa Calm     30 % 0 mm 411.0 W/m2 CLR
14:25 -11.5 °C -20.9 °C 34841.9 hPa Calm     30 % 0 mm 396.0 W/m2 CLR
14:47 -11.5 °C -20.4 °C 34831.8 hPa Calm     32 % 0 mm 369.0 W/m2 CLR
15:29 -11.2 °C -20.4 °C 34818.2 hPa Calm     31 % 0 mm 292.0 W/m2 CLR
15:35 -11.2 °C -20.2 °C 34818.2 hPa Calm     32 % 0 mm 281.0 W/m2 CLR
15:40 -11.2 °C -20.2 °C 34818.2 hPa Calm     32 % 0 mm 271.0 W/m2 CLR
15:45 -11.2 °C -20.2 °C 34808.1 hPa Calm     32 % 0 mm 260.0 W/m2 CLR
15:50 -11.3 °C -20.3 °C 34808.1 hPa Calm     32 % 0 mm 243.0 W/m2 CLR
15:55 -11.3 °C -19.8 °C 34808.1 hPa Calm     34 % 0 mm 230.0 W/m2 CLR
16:00 -11.3 °C -19.7 °C 34808.1 hPa Calm     35 % 0 mm 220.0 W/m2 CLR
16:05 -11.4 °C -19.8 °C 34808.1 hPa Calm     35 % 0 mm 204.0 W/m2 CLR
16:10 -11.6 °C -19.5 °C 34808.1 hPa Calm     37 % 0 mm 190.0 W/m2 CLR
16:15 -11.8 °C -19.5 °C 34818.2 hPa Calm     38 % 0 mm 178.0 W/m2 CLR
16:20 -11.9 °C -19.6 °C 34818.2 hPa Calm     38 % 0 mm 165.0 W/m2 CLR
16:25 -12 °C -19.4 °C 34818.2 hPa Calm     39 % 0 mm 151.0 W/m2 CLR
16:30 -12 °C -19.6 °C 34818.2 hPa Calm     38 % 0 mm 141.0 W/m2 CLR
16:35 -12 °C -19.6 °C 34818.2 hPa Calm     38 % 0 mm 127.0 W/m2 CLR
16:40 -12.1 °C -19.7 °C 34818.2 hPa Calm     38 % 0 mm 114.0 W/m2 CLR
16:45 -12 °C -19.6 °C 34818.2 hPa Calm     38 % 0 mm 102.0 W/m2 CLR
16:50 -12.1 °C -19.7 °C 34818.2 hPa Calm     38 % 0 mm 90.0 W/m2 CLR
16:55 -12.1 °C -19.7 °C 34808.1 hPa Calm     38 % 0 mm 69.0 W/m2 CLR
17:00 -12 °C -19.8 °C 34808.1 hPa Calm     37 % 0 mm 60.0 W/m2 CLR
17:05 -12 °C -19.8 °C 34808.1 hPa Calm     37 % 0 mm 58.0 W/m2 OVC
17:10 -12 °C -19.8 °C 34808.1 hPa Calm     37 % 0 mm 46.0 W/m2 OVC
17:15 -12.1 °C -19.7 °C 34808.1 hPa Calm     38 % 0 mm 39.0 W/m2 OVC
17:20 -12.1 °C -19.6 °C 34808.1 hPa Calm     39 % 0 mm 32.0 W/m2 OVC
17:25 -12.2 °C -19.6 °C 34808.1 hPa Calm     39 % 0 mm 26.0 W/m2 OVC
17:30 -12.3 °C -19.3 °C 34808.1 hPa Calm     41 % 0 mm 23.0 W/m2 OVC
17:35 -12.6 °C -19.2 °C 34808.1 hPa Calm     43 % 0 mm 19.0 W/m2 OVC
17:40 -12.8 °C -19.3 °C 34797.9 hPa Calm     44 % 0 mm 14.0 W/m2 OVC
17:45 -13.1 °C -19.5 °C 34808.1 hPa Calm     44 % 0 mm 11.0 W/m2 OVC
17:50 -13.2 °C -19.4 °C 34808.1 hPa Calm     45 % 0 mm 7.0 W/m2 CLR
17:55 -13.3 °C -19.4 °C 34808.1 hPa Calm     46 % 0 mm 5.0 W/m2 CLR
18:00 -13.4 °C -19.3 °C 34808.1 hPa Calm     47 % 0 mm 0.0 W/m2 CLR
18:05 -13.7 °C -19.4 °C 34808.1 hPa Calm     48 % 0 mm 0.0 W/m2 CLR
18:10 -13.8 °C -19.4 °C 34808.1 hPa Calm     49 % 0 mm 0.0 W/m2 CLR
18:15 -14 °C -19.6 °C 34808.1 hPa Calm     49 % 0 mm 0.0 W/m2 CLR
18:20 -14 °C -19.6 °C 34808.1 hPa Calm     49 % 0 mm 0.0 W/m2 CLR
18:30 -13.8 °C -19.6 °C 34818.2 hPa Calm     47 % 0 mm 0.0 W/m2 CLR
18:35 -13.8 °C -19.7 °C 34808.1 hPa Calm     47 % 0 mm 0.0 W/m2 CLR
18:40 -13.8 °C -19.6 °C 34808.1 hPa Calm     48 % 0 mm 0.0 W/m2 CLR
18:45 -13.8 °C -19.6 °C 34808.1 hPa Calm     48 % 0 mm 0.0 W/m2 CLR
18:50 -13.8 °C -19.7 °C 34808.1 hPa Calm     47 % 0 mm 0.0 W/m2 CLR
18:55 -13.8 °C -19.2 °C 34808.1 hPa Calm     50 % 0 mm 0.0 W/m2 CLR
19:00 -14.3 °C -19.4 °C 34808.1 hPa Calm     52 % 0 mm 0.0 W/m2 CLR
19:05 -14.9 °C -19.5 °C 34808.1 hPa Calm     55 % 0 mm 0.0 W/m2 CLR
19:11 -15.2 °C -19.4 °C 34808.1 hPa Calm     58 % 0 mm 0.0 W/m2 CLR
19:16 -15.5 °C -19.4 °C 34808.1 hPa Calm     60 % 0 mm 0.0 W/m2 CLR
19:21 -15.7 °C -19.4 °C 34808.1 hPa Calm     61 % 0 mm 0.0 W/m2 CLR
19:26 -15.8 °C -19.6 °C 34808.1 hPa Calm     61 % 0 mm 0.0 W/m2 CLR
19:31 -15.8 °C -19.5 °C 34818.2 hPa Calm     62 % 0 mm 0.0 W/m2 CLR
19:36 -15.8 °C -19.5 °C 34818.2 hPa Calm     62 % 0 mm 0.0 W/m2 CLR
19:41 -15.8 °C -19.4 °C 34818.2 hPa Calm     62 % 0 mm 0.0 W/m2 CLR
19:46 -15.8 °C -19.5 °C 34818.2 hPa Calm     62 % 0 mm 0.0 W/m2 CLR
19:51 -15.8 °C -19.4 °C 34818.2 hPa Calm     63 % 0 mm 0.0 W/m2 CLR
19:56 -15.9 °C -19.4 °C 34808.1 hPa Calm     63 % 0 mm 0.0 W/m2 CLR
20:01 -16.1 °C -19.5 °C 34808.1 hPa Calm     64 % 0 mm 0.0 W/m2 CLR
20:06 -16.2 °C -19.5 °C 34808.1 hPa Calm     65 % 0 mm 0.0 W/m2 CLR
20:11 -16.3 °C -19.5 °C 34818.2 hPa Calm     66 % 0 mm 0.0 W/m2 CLR
20:16 -16.5 °C -19.6 °C 34818.2 hPa Calm     67 % 0 mm 0.0 W/m2 CLR
20:21 -16.6 °C -19.5 °C 34818.2 hPa Calm     69 % 0 mm 0.0 W/m2 CLR
20:26 -16.7 °C -19.4 °C 34818.2 hPa Calm     70 % 0 mm 0.0 W/m2 CLR
20:31 -16.7 °C -19.4 °C 34818.2 hPa Calm     70 % 0 mm 0.0 W/m2 CLR
20:36 -16.5 °C -19.1 °C 34818.2 hPa Calm     71 % 0 mm 0.0 W/m2 CLR
20:41 -16.2 °C -18.8 °C 34818.2 hPa Calm     71 % 0 mm 0.0 W/m2 CLR
20:46 -15.9 °C -18.9 °C 34818.2 hPa Calm     68 % 0 mm 0.0 W/m2 CLR
20:51 -16.1 °C -19.1 °C 34818.2 hPa Calm     67 % 0 mm 0.0 W/m2 CLR
20:56 -16.1 °C -18.8 °C 34818.2 hPa Calm     70 % 0 mm 0.0 W/m2 CLR
21:01 -15.9 °C -18.4 °C 34818.2 hPa Calm     72 % 0 mm 0.0 W/m2 CLR
21:06 -15.7 °C -18.3 °C 34831.8 hPa Calm     72 % 0 mm 0.0 W/m2 CLR
21:11 -15.8 °C -18.9 °C 34831.8 hPa Calm     67 % 0 mm 0.0 W/m2 CLR
21:16 -16.2 °C -19.1 °C 34818.2 hPa Calm     68 % 0 mm 0.0 W/m2 CLR
21:21 -16.2 °C -18.4 °C 34831.8 hPa Calm     75 % 0 mm 0.0 W/m2 CLR
21:26 -16.1 °C -18.5 °C 34831.8 hPa Calm     73 % 0 mm 0.0 W/m2 CLR
21:31 -15.9 °C -18.1 °C 34818.2 hPa Calm     75 % 0 mm 0.0 W/m2 CLR
21:36 -15.7 °C -17.8 °C 34831.8 hPa Calm     76 % 0 mm 0.0 W/m2 CLR
21:41 -15.5 °C -17.7 °C 34831.8 hPa Calm     76 % 0 mm 0.0 W/m2 CLR
21:46 -15.4 °C -17.6 °C 34831.8 hPa Calm     76 % 0 mm 0.0 W/m2 CLR
21:51 -15.2 °C -17.4 °C 34831.8 hPa Calm     76 % 0 mm 0.0 W/m2 CLR
21:56 -15.1 °C -17.3 °C 34831.8 hPa Calm     76 % 0 mm 0.0 W/m2 CLR
22:01 -14.9 °C -17.1 °C 34831.8 hPa Calm     76 % 0 mm 0.0 W/m2 CLR
22:06 -14.7 °C -16.8 °C 34831.8 hPa Calm     77 % 0 mm 0.0 W/m2 CLR
22:11 -14.5 °C -16.7 °C 34831.8 hPa Calm     76 % 0 mm 0.0 W/m2 CLR
22:16 -14.4 °C -16.7 °C 34818.2 hPa Calm     75 % 0 mm 0.0 W/m2 CLR
22:21 -14.3 °C -16.6 °C 34818.2 hPa Calm     75 % 0 mm 0.0 W/m2 CLR
22:26 -14.2 °C -16.7 °C 34818.2 hPa Calm     73 % 0 mm 0.0 W/m2 CLR
22:31 -14.2 °C -16.7 °C 34818.2 hPa Calm     73 % 0 mm 0.0 W/m2 CLR
22:36 -14.2 °C -16.7 °C 34831.8 hPa Calm     73 % 0 mm 0.0 W/m2 CLR
22:41 -14.2 °C -16.7 °C 34831.8 hPa Calm     73 % 0 mm 0.0 W/m2 CLR
22:46 -14.3 °C -16.6 °C 34831.8 hPa Calm     75 % 0 mm 0.0 W/m2 CLR
22:51 -14.2 °C -16.5 °C 34831.8 hPa Calm     75 % 0 mm 0.0 W/m2 CLR
22:56 -14.1 °C -16.3 °C 34831.8 hPa Calm     75 % 0 mm 0.0 W/m2 CLR
23:01 -14.1 °C -16.3 °C 34818.2 hPa Calm     75 % 0 mm 0.0 W/m2 CLR
23:06 -14.1 °C -16.4 °C 34818.2 hPa Calm     75 % 0 mm 0.0 W/m2 CLR
23:11 -14.1 °C -16.3 °C 34831.8 hPa Calm     76 % 0 mm 0.0 W/m2 CLR
23:16 -14.2 °C -16.3 °C 34831.8 hPa Calm     76 % 0 mm 0.0 W/m2 CLR
23:21 -14.2 °C -16.3 °C 34831.8 hPa Calm     76 % 0 mm 0.0 W/m2 CLR
23:26 -14.2 °C -16.4 °C 34831.8 hPa Calm     76 % 0 mm 0.0 W/m2 CLR
23:31 -14.2 °C -16.2 °C 34831.8 hPa Calm     78 % 0 mm 0.0 W/m2 CLR
23:36 -14.3 °C -16.3 °C 34831.8 hPa Calm     77 % 0 mm 0.0 W/m2 CLR
23:41 -14.2 °C -16.1 °C 34831.8 hPa Calm     79 % 0 mm 0.0 W/m2 CLR
23:46 -14.1 °C -16.1 °C 34831.8 hPa Calm     78 % 0 mm 0.0 W/m2 CLR
23:51 -14.1 °C -16.1 °C 34831.8 hPa Calm     78 % 0 mm 0.0 W/m2 CLR
23:56 -14.1 °C -16 °C 34831.8 hPa Calm     78 % 0 mm 0.0 W/m2 CLR
Lo Temps de Massalio
Compliments of Weather Underground - 1 mb